Location: Seattle
(47.6064°N, 122.3308°W)
Time: 04:17:54
(UTC-08:00)

S-56A Canister/Altair - Pass Details

Date: 29 November 2020
Orbit: 633 x 2499 km, 38.9° (Epoch: 23 January)

Event Time Altitude Azimuth Distance (km) Brightness Sun altitude
Rises 16:59:15 0° 195° (SSW) 6,000 12.7 -6.6°
Reaches altitude 10° 17:05:15 10° 179° (S) 4,754 11.9 -7.5°
Maximum altitude 17:12:35 18° 144° (SE) 3,749 10.9 -8.6°
Drops below altitude 10° 17:18:44 10° 108° (ESE) 3,889 10.7 -9.6°
Enters shadow 17:20:45 - 98° (E) 4,161 10.7 -9.9°
Sets 17:22:50 0° 90° (E) 4,534 - -10.2°
